Change the Weather History Date:

Monday, August 5, 2013

  Actual Average Record
Temperature  
Mean Temperature 69 °F 73 °F  
Max Temperature 81 °F 87 °F 108 °F (1941)
Min Temperature 56 °F 60 °F 46 °F (2012)
Degree Days  
Heating Degree Days 0 0  
Month to date heating degree days 0 0  
Since 1 June heating degree days 79 87  
Since 1 July heating degree days 11 12  
Cooling Degree Days 4 9  
Month to date cooling degree days 12 45  
Year to date cooling degree days 353 409  
Since 1 June cooling degree days 338 393  
Growing Degree Days 18 (Base 50)    
Moisture  
Dew Point 61 °F    
Average Humidity 76    
Maximum Humidity 100    
Minimum Humidity 51    
Precipitation  
Precipitation 0.00 in 0.08 in 1.99 in (1950)
Month to date precipitation 1.37 0.38  
Year to date precipitation 12.93 12.26  
Sea Level Pressure  
Sea Level Pressure 29.89 in    
Wind  
Wind Speed 5 mph (NE)    
Max Wind Speed 16 mph    
Max Gust Speed 20 mph    
Visibility 8 miles    
Events Fog    
T = Trace of Precipitation, MM = Missing Value Source: NWS Daily Summary

Daily Weather History Graph

Daily Weather History Graph

Search for Another Location

Airport or City:

Trip Planner

Search our weather history database for the weather conditions in past years. The results will help you decide how hot, cold, wet, or windy it might be!

Date:

Astronomy

Aug. 05, 2013 Rise Set
Actual Time 6:30 AM CDT 9:03 PM CDT
Civil Twilight 5:56 AM CDT 9:37 PM CDT
Nautical Twilight 5:14 AM CDT 10:19 PM CDT
Astronomical Twilight 4:26 AM CDT 11:07 PM CDT
Moon 5:28 AM CDT (8/5) 8:03 PM CDT (8/5)
Length of Visible Light 15h 40m
Length of Day
14h 33m
Waning Crescent, 1% of the Moon is Illuminated
Aug 5
Waning Crescent
Aug 6
New
Aug 14
First Quarter
Aug 20
Full
Aug 28
Last Quarter

Hourly Weather History & Observations

Time (CDT) Temp. Heat Index Dew Point Humidity Pressure Visibility Wind Dir Wind Speed Gust Speed Precip Events Conditions
12:52 AM 63.0 °F - 62.1 °F 97% 29.92 in 10.0 mi SSE 4.6 mph - N/A   Clear
1:52 AM 61.0 °F - 61.0 °F 100% 29.91 in 10.0 mi Calm Calm - N/A   Clear
2:52 AM 57.9 °F - 57.0 °F 97% 29.91 in 9.0 mi NNW 3.5 mph - N/A   Clear
3:52 AM 60.1 °F - 60.1 °F 100% 29.91 in 9.0 mi North 5.8 mph - N/A   Clear
4:52 AM 60.1 °F - 60.1 °F 100% 29.90 in 7.0 mi North 5.8 mph - N/A   Clear
5:52 AM 59.0 °F - 59.0 °F 100% 29.91 in 5.0 mi Calm Calm - N/A   Clear
6:52 AM 57.0 °F - 57.0 °F 100% 29.91 in 3.0 mi Calm Calm - N/A   Clear
7:03 AM 57.2 °F - 55.4 °F 94% 29.92 in 1.8 mi Calm Calm - N/A   Clear
7:10 AM 57.2 °F - 57.2 °F 100% 29.92 in 0.2 mi Calm Calm - N/A Fog Fog
7:20 AM 59.0 °F - 57.2 °F 94% 29.92 in 1.5 mi Calm Calm - N/A   Partly Cloudy
7:22 AM 59.0 °F - 59.0 °F 100% 29.92 in 3.0 mi Calm Calm - N/A   Partly Cloudy
7:52 AM 63.0 °F - 62.1 °F 97% 29.91 in 6.0 mi Calm Calm - N/A   Clear
8:24 AM 62.6 °F - 62.6 °F 100% 29.93 in 7.0 mi Calm Calm - N/A   Scattered Clouds
8:34 AM 64.4 °F - 62.6 °F 94% 29.93 in 3.0 mi Calm Calm - N/A   Mostly Cloudy
8:52 AM 64.9 °F - 63.0 °F 93% 29.92 in 10.0 mi Calm Calm - N/A   Mostly Cloudy
8:59 AM 66.2 °F - 62.6 °F 88% 29.93 in 10.0 mi Calm Calm - N/A   Mostly Cloudy
9:08 AM 66.2 °F - 62.6 °F 88% 29.93 in 10.0 mi North 3.5 mph - N/A   Scattered Clouds
9:52 AM 69.1 °F - 63.0 °F 81% 29.91 in 10.0 mi North 6.9 mph - N/A   Scattered Clouds
10:52 AM 71.1 °F - 63.0 °F 75% 29.91 in 10.0 mi North 6.9 mph - N/A   Clear
11:52 AM 73.9 °F - 62.1 °F 66% 29.91 in 10.0 mi NNW 11.5 mph - N/A   Partly Cloudy
12:52 PM 75.0 °F - 63.0 °F 66% 29.91 in 10.0 mi Variable 3.5 mph - N/A   Partly Cloudy
1:52 PM 75.9 °F - 62.1 °F 62% 29.91 in 10.0 mi NNE 9.2 mph - N/A   Clear
2:52 PM 77.0 °F - 62.1 °F 60% 29.90 in 10.0 mi Variable 3.5 mph - N/A   Clear
3:52 PM 79.0 °F - 61.0 °F 54% 29.89 in 10.0 mi North 5.8 mph - N/A   Clear
4:52 PM 80.1 °F 80.9 °F 60.1 °F 50% 29.86 in 10.0 mi NNW 6.9 mph - N/A   Clear
5:52 PM 80.1 °F 81.1 °F 61.0 °F 52% 29.84 in 10.0 mi NE 3.5 mph - N/A   Clear
6:52 PM 79.0 °F - 61.0 °F 54% 29.82 in 10.0 mi East 4.6 mph - N/A   Clear
7:52 PM 75.9 °F - 61.0 °F 60% 29.80 in 10.0 mi East 6.9 mph - N/A   Clear
8:52 PM 70.0 °F - 62.1 °F 76% 29.82 in 10.0 mi ESE 6.9 mph - N/A   Clear
9:52 PM 68.0 °F - 61.0 °F 78% 29.83 in 10.0 mi ESE 5.8 mph - N/A   Clear
10:52 PM 69.1 °F - 62.1 °F 78% 29.83 in 10.0 mi ESE 4.6 mph - N/A   Clear
11:52 PM 69.1 °F - 63.0 °F 81% 29.77 in 10.0 mi SE 9.2 mph - N/A   Clear